AFL727 UUMU-UUEM

Flight info

Callsign AFL727
Flight time 0h 21m
Altitude 19000
Route UUMU DCT TAREF MASUS NUBDO SIFOD KEZVU TOKNU AMLIN NERAP DCT UUEM
Aircraft B77W/H-SDE1E2E3FGHIJ2J3J4J5M1RWXY/LB1D1

Departure

Time 2026-04-24 13:34
Airport Chkalovskiy Air Base (UUMU)

Arrival

Time 2026-04-24 13:55
Airport Migalovo Air Base (UUEM)
Time Latitude Longitude Altitude Speed Heading
2026-04-24 13:33 55.92105 38.54552 12981 ft 340 kts 17°
2026-04-24 13:34 55.94424 38.55241 13761 ft 339 kts 358°
2026-04-24 13:34 55.96732 38.54508 14526 ft 338 kts 338°
2026-04-24 13:34 55.98752 38.52513 15306 ft 335 kts 324°
2026-04-24 13:34 56.00591 38.50001 16115 ft 332 kts 320°
2026-04-24 13:35 56.02371 38.47401 16928 ft 327 kts 317°
2026-04-24 13:35 56.03985 38.44578 17747 ft 321 kts 311°
2026-04-24 13:35 56.05470 38.41630 18413 ft 320 kts 309°
2026-04-24 13:35 56.06929 38.38514 18525 ft 335 kts 308°
2026-04-24 13:36 56.08423 38.35212 18594 ft 348 kts 308°
2026-04-24 13:36 56.09794 38.31578 18578 ft 359 kts 294°
2026-04-24 13:36 56.10664 38.27306 18595 ft 373 kts 285°
2026-04-24 13:36 56.11301 38.22704 18597 ft 388 kts 281°
2026-04-24 13:37 56.11836 38.17861 18594 ft 403 kts 280°
2026-04-24 13:37 56.12348 38.12837 18595 ft 417 kts 279°
2026-04-24 13:37 56.12855 38.07727 18575 ft 416 kts 279°
2026-04-24 13:37 56.13351 38.02625 18577 ft 417 kts 279°
2026-04-24 13:38 56.13838 37.97504 18575 ft 415 kts 279°
2026-04-24 13:38 56.14313 37.92413 18572 ft 415 kts 279°
2026-04-24 13:38 56.14725 37.87289 18575 ft 415 kts 276°
2026-04-24 13:38 56.14928 37.82118 18583 ft 415 kts 273°
2026-04-24 13:39 56.15046 37.76951 18583 ft 416 kts 272°
2026-04-24 13:39 56.15133 37.71752 18580 ft 417 kts 272°
2026-04-24 13:39 56.15206 37.66550 18580 ft 416 kts 272°
2026-04-24 13:39 56.15265 37.61425 18588 ft 415 kts 272°
2026-04-24 13:40 56.15328 37.56280 18593 ft 415 kts 274°
2026-04-24 13:40 56.15680 37.51127 18593 ft 415 kts 282°
2026-04-24 13:40 56.16287 37.46104 18590 ft 410 kts 285°
2026-04-24 13:40 56.16962 37.41134 18599 ft 410 kts 285°
2026-04-24 13:41 56.17656 37.36139 18611 ft 415 kts 285°
2026-04-24 13:41 56.18354 37.31130 18599 ft 414 kts 286°
2026-04-24 13:41 56.19056 37.26093 18611 ft 416 kts 286°
2026-04-24 13:41 56.19756 37.21059 18601 ft 415 kts 286°
2026-04-24 13:42 56.20447 37.16061 18603 ft 416 kts 286°
2026-04-24 13:42 56.21149 37.10963 18601 ft 418 kts 286°
2026-04-24 13:42 56.21843 37.05891 18611 ft 418 kts 286°
2026-04-24 13:42 56.22535 37.00802 18609 ft 420 kts 286°
2026-04-24 13:43 56.23228 36.95675 18615 ft 423 kts 286°
2026-04-24 13:43 56.23919 36.90526 18614 ft 424 kts 286°
2026-04-24 13:43 56.24630 36.85414 18608 ft 420 kts 290°
2026-04-24 13:43 56.25694 36.80545 18616 ft 416 kts 298°
2026-04-24 13:44 56.27033 36.75934 18626 ft 415 kts 302°
2026-04-24 13:44 56.28453 36.71409 18625 ft 415 kts 302°
2026-04-24 13:44 56.29797 36.66789 18622 ft 417 kts 298°
2026-04-24 13:44 56.31049 36.62078 18623 ft 417 kts 298°
2026-04-24 13:45 56.32289 36.57355 18625 ft 417 kts 298°
2026-04-24 13:45 56.33524 36.52627 18633 ft 417 kts 298°
2026-04-24 13:45 56.34756 36.47882 18626 ft 417 kts 298°
2026-04-24 13:45 56.35933 36.43160 18631 ft 418 kts 295°
2026-04-24 13:46 56.36974 36.38199 18634 ft 419 kts 293°
2026-04-24 13:46 56.37629 36.34845 18631 ft 419 kts 292°
2026-04-24 13:46 56.37672 36.34619 18633 ft 419 kts 292°
2026-04-24 13:47 56.38615 36.29656 18636 ft 418 kts 292°
2026-04-24 13:47 56.39569 36.24695 18636 ft 415 kts 295°
2026-04-24 13:47 56.40825 36.20036 18632 ft 411 kts 305°
2026-04-24 13:47 56.42435 36.15802 18640 ft 408 kts 310°
2026-04-24 13:48 56.44165 36.11741 18640 ft 408 kts 311°
2026-04-24 13:48 56.45938 36.07710 18495 ft 410 kts 311°
2026-04-24 13:48 56.47737 36.03655 17880 ft 414 kts 311°
2026-04-24 13:48 56.49542 35.99611 17189 ft 413 kts 311°
2026-04-24 13:49 56.51338 35.95603 16750 ft 405 kts 311°
2026-04-24 13:49 56.53132 35.91797 16602 ft 391 kts 314°
2026-04-24 13:49 56.54961 35.88176 15933 ft 390 kts 315°
2026-04-24 13:49 56.56827 35.84569 15157 ft 394 kts 315°
2026-04-24 13:50 56.58718 35.80947 14399 ft 396 kts 315°
2026-04-24 13:50 56.60609 35.77350 13939 ft 390 kts 315°
2026-04-24 13:50 56.62453 35.73855 13839 ft 376 kts 316°
2026-04-24 13:50 56.64249 35.70455 13358 ft 373 kts 316°
2026-04-24 13:51 56.66061 35.67041 12522 ft 377 kts 316°
2026-04-24 13:51 56.67882 35.63696 11735 ft 378 kts 319°
2026-04-24 13:51 56.69888 35.60704 11049 ft 362 kts 324°
2026-04-24 13:51 56.71855 35.58060 10329 ft 343 kts 325°
2026-04-24 13:52 56.73754 35.55575 9567 ft 330 kts 326°
2026-04-24 13:52 56.75592 35.53185 8723 ft 319 kts 326°
2026-04-24 13:52 56.77373 35.50892 7894 ft 309 kts 326°
2026-04-24 13:52 56.79161 35.48831 7079 ft 300 kts 337°
2026-04-24 13:53 56.81159 35.48007 6281 ft 293 kts
2026-04-24 13:53 56.83007 35.49488 5191 ft 302 kts 52°
2026-04-24 13:53 56.83494 35.53027 4724 ft 290 kts 96°
2026-04-24 13:53 56.82971 35.56592 3568 ft 289 kts 104°
2026-04-24 13:54 56.82440 35.60093 2530 ft 283 kts 103°
2026-04-24 13:54 56.81937 35.63444 1817 ft 268 kts 103°
2026-04-24 13:54 56.81564 35.66678 1286 ft 247 kts 94°
2026-04-24 13:54 56.81549 35.69660 826 ft 225 kts 78°
2026-04-24 13:55 56.81918 35.72244 640 ft 201 kts 69°
2026-04-24 13:55 56.82282 35.74478 471 ft 134 kts 73°
2026-04-24 13:55 56.82377 35.75124 464 ft 0 kts 75°
2026-04-24 13:55 56.82380 35.75140 465 ft 2 kts 75°
2026-04-24 13:56 56.82387 35.75177 464 ft 4 kts 70°
2026-04-24 13:56 56.82398 35.75238 463 ft 6 kts 73°
2026-04-24 13:56 56.82412 35.75312 463 ft 6 kts 73°
2026-04-24 13:56 56.82418 35.75355 463 ft 0 kts 76°
2026-04-24 13:57 56.82418 35.75359 463 ft 3 kts 75°
2026-04-24 13:57 56.82433 35.75464 463 ft 10 kts 75°
2026-04-24 13:57 56.82452 35.75583 461 ft 10 kts 74°
2026-04-24 13:57 56.82471 35.75701 463 ft 10 kts 75°
2026-04-24 13:58 56.82491 35.75837 462 ft 17 kts 77°
2026-04-24 13:58 56.82524 35.76067 463 ft 0 kts 76°
2026-04-24 13:59 56.82524 35.76068 463 ft 0 kts 76°
2026-04-24 13:59 56.82526 35.76081 464 ft 0 kts 76°
2026-04-24 13:59 56.82538 35.76165 464 ft 13 kts 75°
2026-04-24 14:00 56.82427 35.75404 463 ft 349 kts 75°
2026-04-24 14:00 56.82362 35.74956 466 ft 6 kts 75°
2026-04-24 14:00 56.82372 35.75032 467 ft 0 kts 76°
2026-04-24 14:01 56.82373 35.75038 466 ft 1 kts 76°
2026-04-24 14:01 56.82375 35.75053 466 ft 1 kts 76°
2026-04-24 14:01 56.82393 35.75188 466 ft 20 kts 75°
2026-04-24 14:01 56.82312 35.74627 469 ft 0 kts 75°
2026-04-24 14:02 56.82314 35.74645 469 ft 6 kts 75°
2026-04-24 14:02 56.82335 35.74789 468 ft 10 kts 75°
2026-04-24 14:02 56.82342 35.74839 468 ft 8 kts 75°
2026-04-24 14:02 56.82365 35.74999 467 ft 17 kts 75°
2026-04-24 14:03 56.82387 35.75146 464 ft 2 kts 75°
2026-04-24 14:03 56.82411 35.75315 463 ft 19 kts 75°
2026-04-24 14:03 56.82192 35.73792 471 ft 1 kts 75°
2026-04-24 14:03 56.82206 35.73911 470 ft 23 kts 78°
2026-04-24 14:04 56.82245 35.74188 470 ft 18 kts 75°
2026-04-24 14:04 56.82268 35.74345 470 ft 22 kts 75°
2026-04-24 14:04 56.82344 35.74857 468 ft 52 kts 75°
2026-04-24 14:04 56.82393 35.75193 466 ft 15 kts 74°
2026-04-24 14:05 56.82462 35.75616 462 ft 56 kts 78°
2026-04-24 14:05 56.82544 35.74252 469 ft 441 kts 75°
2026-04-24 14:05 56.82857 35.76265 461 ft 0 kts 75°